[[{"header":{"parameterUnit":"m.s-1","parameterCategory":1,"la1":30.2991,"la2":30.254,"lo1":-89.0895,"lo2":-89.0444,"dy":0.0017,"dx":0.0017,"nx":28,"ny":28,"refTime":"2024-05-03T09:00:00:Z","depth":0,"parameterNumber":2,"parameterNumberName":"U-component_of_WINDS"},"data":[0,0,0,0,0,0,0,0,0,0,0,0,0,0,0,0,0,0,0,0,0,0,0,0,0,0,0,0,0,0,0,0,0,0,0,0,0,0,0,0,0,0,0,0,0,0,0,0,0,0,0,0,0,0,0,0,0,0,-1.0833,-1.0833,0,-1.0847,-1.0847,-1.0847,-1.0836,-1.0836,-1.0835,-1.0835,-1.085,-1.085,-1.0851,0,0,0,0,0,0,0,0,0,0,0,0,0,-1.08,-1.08,-1.0833,-1.0833,-1.0833,-1.0847,-1.0847,-1.0847,-1.0836,-1.0836,-1.0835,-1.0834,-1.0849,-1.085,-1.0851,0,0,0,0,0,0,0,0,0,0,0,0,0,-1.0814,-1.08,-1.0833,-1.083,-1.0829,-1.0847,-1.0847,-1.0847,-1.0836,-1.0836,-1.0835,-1.0834,-1.0849,-1.085,-1.0851,-1.0873,0,0,-1.0855,-1.0856,0,0,0,0,0,0,0,0,-1.0813,-1.0815,-1.083,-1.083,-1.083,-1.0839,-1.084,-1.0856,-1.0836,-1.0834,-1.0835,-1.0834,-1.0847,-1.0848,-1.0852,-1.0874,-1.0874,-1.0855,-1.0856,-1.0857,-1.0857,0,0,0,0,0,0,0,-1.0812,-1.0814,-1.0838,-1.083,-1.083,-1.0828,-1.0829,-1.0843,-1.0844,-1.0834,-1.0833,-1.0835,-1.0846,-1.0851,-1.0852,-1.0875,-1.0855,-1.0856,-1.0857,-1.0858,-1.0915,-1.0916,0,0,0,0,0,0,-1.0811,-1.0814,-1.0838,-1.0839,-1.0819,-1.0829,-1.083,-1.0837,-1.0844,-1.0844,-1.0835,-1.0834,-1.0849,-1.0851,-1.0853,-1.0879,-1.0857,-1.0858,-1.0859,-1.0915,-1.0916,-1.0916,0,0,0,0,0,0,-1.081,-1.0813,-1.0838,-1.0826,-1.0829,-1.083,-1.0837,-1.0837,-1.0842,-1.0845,-1.0845,-1.084,-1.0849,-1.0851,-1.0868,-1.0879,-1.0858,-1.0859,-1.0914,-1.0915,-1.0916,-1.0932,0,0,0,0,0,0,-1.081,-1.0813,-1.0821,-1.0826,-1.083,-1.0852,-1.0838,-1.0838,-1.0844,-1.0842,-1.0849,-1.0849,-1.0848,-1.0866,-1.0869,-1.0881,-1.086,-1.0913,-1.0914,-1.0916,-1.093,-1.0933,-1.0936,0,0,0,0,0,-1.0808,-1.0825,-1.0822,-1.0825,-1.0839,-1.0853,-1.0855,-1.0853,-1.0845,-1.0853,-1.0855,-1.0849,-1.0878,-1.0868,-1.0872,-1.0884,-1.0912,-1.0914,-1.0916,-1.0929,-1.0933,-1.0936,0,0,0,0,0,0,-1.0821,-1.0826,-1.0822,-1.0841,-1.0846,-1.0851,-1.0861,-1.0857,-1.0865,-1.0864,-1.0861,-1.0863,-1.0881,-1.0884,-1.0873,-1.0905,-1.0894,-1.0896,-1.0903,-1.0906,-1.0909,-1.0908,-1.0862,0,0,0,0,0,-1.0826,-1.0837,-1.084,-1.0856,-1.0859,-1.086,-1.0866,-1.0864,-1.087,-1.0872,-1.0876,-1.0882,-1.0893,-1.0899,-1.0909,-1.093,-1.0932,-1.094,-1.0943,-1.0946,-1.0948,-1.096,-1.0964,-1.0922,-1.0922,-1.0922,0,0,-1.0837,-1.0841,-1.0847,-1.0859,-1.0863,-1.0874,-1.0862,-1.0874,-1.0883,-1.0874,-1.089,-1.0893,-1.09,-1.092,-1.0928,-1.0923,-1.096,-1.0948,-1.095,-1.0951,-1.0962,-1.0966,-1.0969,-1.0924,-1.0923,-1.0923,0,0,-1.0862,-1.0866,-1.088,-1.0884,-1.0891,-1.0891,-1.0895,-1.09,-1.0901,-1.0918,-1.0912,-1.0922,-1.094,-1.0945,-1.095,-1.0978,-1.0973,-1.0981,-1.0996,-1.1008,-1.1011,-1.1014,-1.1024,-1.1028,-1.0984,-1.0984,-1.0984,0,-1.0875,-1.0891,-1.0888,-1.09,-1.0906,-1.0899,-1.0913,-1.0918,-1.0928,-1.0932,-1.0925,-1.0948,-1.0952,-1.0973,-1.098,-1.0984,-1.0988,-1.0981,-1.1011,-1.1014,-1.1017,-1.1026,-1.103,-1.0985,-1.0985,-1.0984,-1.0984,0,-1.0906,-1.0917,-1.0928,-1.0937,-1.0944,-1.0957,-1.0957,-1.0964,-1.0962,-1.0963,-1.098,-1.0985,-1.0996,-1.1001,-1.0999,-1.1021,-1.1018,-1.1011,-1.1,-1.1021,-1.1031,-1.1034,-1.0986,-1.0986,-1.0985,-1.0985,0,0,-1.094,-1.0947,-1.0951,-1.0955,-1.0962,-1.0971,-1.0985,-1.0995,-1.1001,-1.1009,-1.102,-1.1036,-1.103,-1.1036,-1.1034,-1.1044,-1.1066,-1.1036,-1.1037,-1.1042,-1.1093,-1.1098,-1.1102,-1.1063,-1.1064,-1.1064,-1.1092,0,-1.0965,-1.0988,-1.0986,-1.1009,-1.1019,-1.1013,-1.1024,-1.103,-1.1032,-1.1042,-1.1043,-1.1055,-1.1046,-1.1049,-1.1059,-1.1062,-1.1077,-1.106,-1.1075,-1.1075,-1.1073,-1.1107,-1.1112,-1.1138,-1.1096,-1.1096,-1.1097,0,-1.0999,-1.1006,-1.1029,-1.1035,-1.1039,-1.105,-1.1059,-1.1069,-1.1075,-1.1076,-1.1082,-1.1079,-1.1093,-1.1081,-1.1101,-1.109,-1.1096,-1.1098,-1.1099,-1.1101,-1.1087,-1.1109,-1.1146,-1.115,-1.1102,-1.1102,-1.1101,0,-1.1022,-1.1038,-1.1054,-1.1058,-1.1064,-1.1072,-1.1075,-1.1081,-1.1088,-1.1096,-1.11,-1.111,-1.1116,-1.1124,-1.1124,-1.1115,-1.1145,-1.1132,-1.1146,-1.1146,-1.1152,-1.1152,-1.1191,-1.1156,-1.1156,-1.1156,-1.1156,0,-1.1051,-1.1065,-1.1064,-1.1074,-1.109,-1.1088,-1.1104,-1.1107,-1.1112,-1.1123,-1.1118,-1.1128,-1.1127,-1.1138,-1.1138,-1.1154,-1.1157,-1.1158,-1.1158,-1.1159,-1.1159,-1.1163,-1.1161,-1.1157,-1.1157,-1.1156,-1.1156,0,-1.1079,-1.1079,-1.1096,-1.1101,-1.1103,-1.1114,-1.1119,-1.1128,-1.1129,-1.1143,-1.1146,-1.1148,-1.116,-1.1161,-1.1175,-1.1175,-1.1195,-1.1193,-1.1193,-1.1193,-1.1206,-1.1205,-1.1249,-1.1255,-1.1216,-1.1217,-1.1217,0,-1.1098,-1.1109,-1.1115,-1.1122,-1.1125,-1.1136,-1.1142,-1.114,-1.1148,-1.1156,-1.1165,-1.1176,-1.1186,-1.1205,-1.1208,-1.1219,-1.1217,-1.1232,-1.1219,-1.122,-1.1218,-1.1218,-1.1219,-1.1235,-1.1235,-1.1236,-1.1236,0,-1.1132,-1.1131,-1.1141,-1.115,-1.1158,-1.1165,-1.1172,-1.1178,-1.1177,-1.1185,-1.1197,-1.1204,-1.1218,-1.123,-1.1241,-1.1244,-1.124,-1.124,-1.1244,-1.1245,-1.1244,-1.1245,-1.12,-1.1239,-1.1239,-1.1238,-1.1238,-1.1238,-1.1157,-1.1166,-1.1172,-1.1182,-1.1187,-1.1194,-1.1203,-1.1205,-1.1215,-1.1226,-1.1225,-1.1238,-1.1245,-1.1259,-1.1263,-1.1274,-1.1269,-1.1275,-1.1276,-1.1278,-1.1279,-1.1242,-1.1276,-1.1276,-1.1276,-1.1276,-1.1276,0,-1.1191,-1.1194,-1.1204,-1.1213,-1.1221,-1.1216,-1.1223,-1.1231,-1.1243,-1.1249,-1.1258,-1.1272,-1.1284,-1.1287,-1.1299,-1.1307,-1.1305,-1.131,-1.1309,-1.131,-1.1283,-1.1279,-1.1311,-1.1311,-1.1311,-1.1311,-1.1311,-1.1311,-1.121,-1.1226,-1.1226,-1.1244,-1.1247,-1.126,-1.1265,-1.1271,-1.1276,-1.1292,-1.1301,-1.1303,-1.1309,-1.132,-1.133,-1.1331,-1.1336,-1.1341,-1.1342,-1.1316,-1.1312,-1.1309,-1.1305,-1.1342,-1.1342,-1.1368,-1.1369,-1.1369]},{"header":{"parameterUnit":"m.s-1","parameterCategory":1,"la1":30.2991,"la2":30.254,"lo1":-89.0895,"lo2":-89.0444,"dy":0.0017,"dx":0.0017,"nx":28,"ny":28,"refTime":"2024-05-03T09:00:00:Z","depth":0,"parameterNumber":3,"parameterNumberName":"V-component_of_WINDS"},"data":[0,0,0,0,0,0,0,0,0,0,0,0,0,0,0,0,0,0,0,0,0,0,0,0,0,0,0,0,0,0,0,0,0,0,0,0,0,0,0,0,0,0,0,0,0,0,0,0,0,0,0,0,0,0,0,0,0,0,4.8399,4.84,0,4.8416,4.8416,4.8416,4.8333,4.833,4.8328,4.8326,4.834,4.8342,4.8345,0,0,0,0,0,0,0,0,0,0,0,0,0,4.8293,4.8295,4.8399,4.84,4.84,4.8416,4.8416,4.8416,4.8333,4.833,4.8327,4.8325,4.8339,4.8342,4.8345,0,0,0,0,0,0,0,0,0,0,0,0,0,4.8327,4.8296,4.8399,4.836,4.8357,4.8416,4.8416,4.8416,4.8334,4.833,4.8326,4.8323,4.8338,4.8342,4.8346,4.8442,0,0,4.8358,4.8359,0,0,0,0,0,0,0,0,4.8325,4.8331,4.8366,4.8363,4.8359,4.8369,4.8383,4.8425,4.8335,4.8342,4.8326,4.8321,4.8352,4.8355,4.8366,4.8443,4.8443,4.8358,4.836,4.8362,4.8363,0,0,0,0,0,0,0,4.8323,4.833,4.8406,4.8366,4.8363,4.8341,4.8342,4.8391,4.8367,4.8341,4.8335,4.8339,4.835,4.8362,4.8365,4.8443,4.8358,4.8361,4.8364,4.8365,4.8599,4.8602,0,0,0,0,0,0,4.8326,4.8328,4.8405,4.8406,4.8333,4.8346,4.8347,4.8369,4.8366,4.8363,4.8342,4.8335,4.8357,4.8361,4.8366,4.8477,4.8362,4.8366,4.8368,4.8595,4.86,4.8604,0,0,0,0,0,0,4.8324,4.8334,4.8404,4.8366,4.8373,4.8351,4.8377,4.8371,4.8384,4.8367,4.8362,4.8359,4.8354,4.836,4.8423,4.8476,4.8368,4.8371,4.859,4.8596,4.8602,4.8701,0,0,0,0,0,0,4.8321,4.8334,4.8371,4.8367,4.8375,4.8463,4.8381,4.8374,4.8391,4.8382,4.8381,4.8378,4.8352,4.8418,4.8427,4.848,4.8374,4.8585,4.8593,4.86,4.8693,4.871,4.8724,0,0,0,0,0,4.8318,4.8398,4.8373,4.8383,4.8422,4.8467,4.8471,4.8441,4.8396,4.8432,4.8421,4.8378,4.8469,4.8425,4.8435,4.8489,4.8582,4.8591,4.8599,4.8686,4.8707,4.8724,0,0,0,0,0,0,4.8407,4.8397,4.8369,4.845,4.846,4.8452,4.8498,4.8463,4.8485,4.8476,4.8436,4.8436,4.8506,4.8504,4.8455,4.8582,4.8518,4.8529,4.858,4.86,4.8615,4.8613,4.8377,0,0,0,0,0,4.8437,4.8475,4.8463,4.8536,4.8543,4.852,4.8538,4.8514,4.8522,4.8525,4.8519,4.8527,4.8558,4.8579,4.8606,4.8693,4.8691,4.8735,4.875,4.8763,4.8773,4.8817,4.8837,4.8632,4.8632,4.8632,0,0,4.8497,4.8496,4.8523,4.8554,4.8559,4.8598,4.8524,4.8569,4.8597,4.8532,4.8591,4.8587,4.8594,4.8669,4.8702,4.867,4.8829,4.8774,4.8784,4.8787,4.8828,4.8848,4.8865,4.8638,4.8637,4.8636,0,0,4.8628,4.8632,4.8692,4.8699,4.8707,4.8691,4.8706,4.8703,4.8698,4.8757,4.8709,4.8742,4.8795,4.8802,4.8812,4.8945,4.8906,4.8955,4.9035,4.9079,4.9095,4.911,4.9156,4.9173,4.8965,4.8965,4.8966,0,4.8702,4.8761,4.8728,4.8776,4.8791,4.8734,4.8794,4.8801,4.8818,4.8829,4.8793,4.8858,4.8859,4.8935,4.8967,4.8978,4.8992,4.8955,4.9096,4.911,4.9122,4.9166,4.9184,4.8971,4.8971,4.897,4.8969,0,4.8851,4.8892,4.894,4.8958,4.8978,4.9032,4.9006,4.903,4.9004,4.8992,4.9052,4.9051,4.9077,4.9093,4.9068,4.9165,4.9145,4.9103,4.9038,4.9148,4.9189,4.9205,4.898,4.8978,4.8976,4.8974,0,0,4.9038,4.9037,4.9055,4.9062,4.9066,4.9097,4.9148,4.9174,4.9195,4.9208,4.9249,4.9296,4.9257,4.9269,4.9244,4.9283,4.9387,4.9236,4.9236,4.9263,4.9493,4.9524,4.9544,4.9362,4.9365,4.9367,4.9492,0,4.9164,4.9253,4.9224,4.9313,4.935,4.9296,4.934,4.9348,4.9338,4.9367,4.9355,4.9388,4.9335,4.9342,4.9378,4.9367,4.9433,4.9358,4.9398,4.94,4.9397,4.9565,4.9598,4.9715,4.9508,4.951,4.9512,0,4.9324,4.9344,4.9437,4.9435,4.9449,4.949,4.9511,4.954,4.9546,4.9536,4.955,4.9516,4.9565,4.9501,4.9567,4.9516,4.9531,4.9528,4.9532,4.9534,4.9462,4.957,4.9752,4.977,4.9537,4.9535,4.9533,0,4.945,4.95,4.9562,4.957,4.9569,4.9599,4.9599,4.9603,4.962,4.9638,4.9648,4.9672,4.9684,4.9703,4.9676,4.9632,4.9746,4.9679,4.9738,4.9738,4.9763,4.9762,4.995,4.9775,4.9775,4.9774,4.9774,0,4.9594,4.9653,4.9618,4.9656,4.972,4.9686,4.9749,4.9744,4.9747,4.9782,4.9738,4.9771,4.9735,4.9765,4.9744,4.9802,4.9808,4.98,4.9794,4.9804,4.9805,4.9812,4.9803,4.9779,4.9778,4.9777,4.9776,0,4.9745,4.9724,4.9788,4.9782,4.9782,4.9829,4.9823,4.9858,4.9844,4.9889,4.9898,4.9877,4.991,4.9885,4.9918,4.9904,4.9979,4.9962,4.9977,4.9972,5.0031,5.0026,5.023,5.0254,5.0065,5.0067,5.0069,0,4.9838,4.9881,4.9881,4.9901,4.9905,4.9939,4.9956,4.9924,4.9944,4.9955,4.9987,5.0017,5.0038,5.0093,5.0081,5.0105,5.0087,5.0157,5.009,5.0099,5.0087,5.0084,5.0088,5.017,5.0172,5.0174,5.0176,0,5.0004,4.9992,5.0019,5.0043,5.0065,5.0081,5.0094,5.0114,5.0081,5.0106,5.0139,5.0156,5.0189,5.0219,5.0239,5.0238,5.0202,5.0197,5.0211,5.0221,5.0228,5.0224,5.0013,5.0192,5.019,5.0189,5.0188,5.0188,5.0128,5.0164,5.0169,5.02,5.0207,5.022,5.0252,5.0243,5.027,5.0295,5.0275,5.0315,5.0319,5.0342,5.0346,5.0376,5.0348,5.0369,5.0374,5.038,5.0388,5.0224,5.038,5.038,5.0379,5.0379,5.0378,0,5.0291,5.0292,5.0321,5.0341,5.0365,5.033,5.0342,5.0365,5.0401,5.0408,5.0431,5.0469,5.0497,5.0487,5.0511,5.0537,5.0521,5.0545,5.0542,5.0542,5.0413,5.0397,5.0557,5.0557,5.0557,5.0557,5.0557,5.0557,5.0379,5.0438,5.0426,5.0487,5.0487,5.0526,5.0536,5.0548,5.0554,5.0598,5.0622,5.0615,5.0615,5.0639,5.0663,5.0659,5.067,5.07,5.069,5.0569,5.0551,5.0534,5.052,5.0703,5.0703,5.0817,5.0818,5.0818]}]]